When you browse on this site, cookies collect data to enhance your experience and personalize the content and advertising you see.
Visit our Privacy Policy to learn more. By continuing to use the site, you agree to this use of cookies and data.
  • In Lithuania
  • List of Countries
  • For 7 days
  • Water Temperature
  • Satellite Maps
  • Weather Map
  • Weather Widgets
  • user-avatar
    Login

    Hourly Weather Maracaibo

    Today, 18 November, Sunday

    Time Temperature Precipitation Wind Pressure Humidity
    00:00 +27°C° 1.8 mm 4 mps 752 mmHg 93%
    01:00 +26°C° 1.8 mm 4 mps 752 mmHg 93%
    02:00 +26°C° 0.9 mm 4 mps 752 mmHg 93%
    03:00 +26°C° 0.9 mm 4 mps 751 mmHg 93%
    04:00 +26°C° 0.9 mm 4 mps 751 mmHg 92%
    05:00 +26°C° 0.5 mm 4 mps 752 mmHg 92%
    06:00 +27°C° 0.5 mm 3 mps 752 mmHg 91%
    07:00 +27°C° 0.5 mm 3 mps 752 mmHg 91%
    08:00 +29°C° 0.2 mm 3 mps 753 mmHg 84%
    09:00 +30°C° 0.2 mm 3 mps 753 mmHg 78%
    10:00 +32°C° 0.2 mm 2 mps 753 mmHg 71%
    11:00 +32°C° 0.6 mm 2 mps 752 mmHg 71%
    12:00 +34°C° 0.6 mm 2 mps 751 mmHg 70%
    13:00 +34°C° 0.6 mm 2 mps 751 mmHg 69%
    14:00 +32°C° 0.9 mm 2 mps 750 mmHg 74%
    15:00 +31°C° 0.9 mm 3 mps 750 mmHg 78%
    16:00 +31°C° 0.9 mm 3 mps 750 mmHg 82%
    17:00 +30°C° 1.2 mm 4 mps 750 mmHg 85%
    18:00 +28°C° 1.2 mm 4 mps 751 mmHg 88%
    19:00 +27°C° 1.2 mm 5 mps 751 mmHg 91%
    20:00 +27°C° 1.2 mm 5 mps 752 mmHg 91%
    21:00 +27°C° 1.2 mm 5 mps 752 mmHg 91%
    22:00 +27°C° 1.2 mm 5 mps 752 mmHg 91%
    23:00 +27°C° 0.7 mm 5 mps 752 mmHg 91%

    Tomorrow, 19 November, Monday

    Time Temperature Precipitation Wind Pressure Humidity
    00:00 +27°C° 0.7 mm 4 mps 752 mmHg 91%
    01:00 +26°C° 0.7 mm 4 mps 752 mmHg 91%
    02:00 +26°C° 0.4 mm 4 mps 752 mmHg 92%
    03:00 +26°C° 0.4 mm 4 mps 752 mmHg 92%
    04:00 +26°C° 0.4 mm 4 mps 751 mmHg 93%
    05:00 +26°C° 0.3 mm 4 mps 752 mmHg 92%
    06:00 +27°C° 0.3 mm 4 mps 752 mmHg 91%
    07:00 +27°C° 0.3 mm 3 mps 753 mmHg 90%
    08:00 +29°C° 0.4 mm 3 mps 753 mmHg 84%
    09:00 +30°C° 0.4 mm 3 mps 753 mmHg 78%
    10:00 +33°C° 0.4 mm 3 mps 753 mmHg 72%
    11:00 +33°C° 0.6 mm 3 mps 753 mmHg 71%
    12:00 +33°C° 0.6 mm 3 mps 752 mmHg 70%
    13:00 +34°C° 0.6 mm 3 mps 751 mmHg 69%
    14:00 +33°C° 0.5 mm 3 mps 751 mmHg 74%
    15:00 +31°C° 0.5 mm 3 mps 750 mmHg 79%
    16:00 +30°C° 0.5 mm 3 mps 750 mmHg 84%
    17:00 +29°C° 0.5 mm 4 mps 751 mmHg 87%
    18:00 +28°C° 0.5 mm 4 mps 751 mmHg 90%
    19:00 +27°C° 0.5 mm 5 mps 752 mmHg 92%
    20:00 +27°C° 1.3 mm 5 mps 752 mmHg 93%
    21:00 +27°C° 1.3 mm 5 mps 753 mmHg 93%
    22:00 +27°C° 1.3 mm 5 mps 753 mmHg 94%
    23:00 +26°C° 0.8 mm 4 mps 753 mmHg 94%

    Day after tomorrow, 20 November, Tuesday

    Time Temperature Precipitation Wind Pressure Humidity
    00:00 +26°C° 0.8 mm 4 mps 753 mmHg 94%
    01:00 +26°C° 0.8 mm 4 mps 752 mmHg 94%
    02:00 +26°C° 0.7 mm 4 mps 752 mmHg 94%
    03:00 +26°C° 0.7 mm 3 mps 752 mmHg 94%
    04:00 +26°C° 0.7 mm 3 mps 752 mmHg 94%
    05:00 +26°C° 0.3 mm 3 mps 752 mmHg 94%
    06:00 +27°C° 0.3 mm 3 mps 753 mmHg 93%
    07:00 +27°C° 0.3 mm 3 mps 753 mmHg 92%
    08:00 +29°C° 0.5 mm 3 mps 753 mmHg 86%
    09:00 +30°C° 0.5 mm 2 mps 753 mmHg 81%
    10:00 +31°C° 0.5 mm 2 mps 753 mmHg 75%
    11:00 +32°C° 0.3 mm 2 mps 753 mmHg 72%
    12:00 +32°C° 0.3 mm 2 mps 752 mmHg 70%
    13:00 +34°C° 0.3 mm 2 mps 751 mmHg 67%
    14:00 +33°C° 0.1 mm 3 mps 751 mmHg 71%
    15:00 +33°C° 0.1 mm 3 mps 750 mmHg 74%
    16:00 +32°C° 0.1 mm 4 mps 750 mmHg 78%
    17:00 +30°C° 0.6 mm 4 mps 751 mmHg 83%
    18:00 +29°C° 0.6 mm 4 mps 751 mmHg 88%
    19:00 +27°C° 0.6 mm 5 mps 752 mmHg 93%
    20:00 +27°C° 1.6 mm 5 mps 752 mmHg 93%
    21:00 +27°C° 1.6 mm 5 mps 753 mmHg 94%
    22:00 +27°C° 1.6 mm 5 mps 753 mmHg 94%
    23:00 +27°C° 1.1 mm 5 mps 753 mmHg 94%

    21 November, Wednesday

    Time Temperature Precipitation Wind Pressure Humidity
    00:00 +26°C° 1.1 mm 4 mps 753 mmHg 94%
    01:00 +26°C° 1.1 mm 4 mps 753 mmHg 95%
    02:00 +26°C° 0.6 mm 4 mps 752 mmHg 94%
    03:00 +26°C° 0.6 mm 4 mps 752 mmHg 94%
    04:00 +26°C° 0.6 mm 4 mps 752 mmHg 94%
    05:00 +27°C° 0.4 mm 3 mps 753 mmHg 93%
    06:00 +27°C° 0.4 mm 3 mps 753 mmHg 92%
    07:00 +27°C° 0.4 mm 3 mps 754 mmHg 91%
    08:00 +29°C° 0.6 mm 3 mps 754 mmHg 86%
    09:00 +30°C° 0.6 mm 3 mps 754 mmHg 80%
    10:00 +31°C° 0.6 mm 2 mps 754 mmHg 75%
    11:00 +32°C° 0.3 mm 2 mps 753 mmHg 72%
    12:00 +32°C° 0.3 mm 2 mps 752 mmHg 69%
    13:00 +34°C° 0.3 mm 2 mps 752 mmHg 67%
    14:00 +33°C° 0.4 mm 3 mps 751 mmHg 71%
    15:00 +33°C° 0.4 mm 3 mps 751 mmHg 76%
    16:00 +31°C° 0.4 mm 3 mps 750 mmHg 80%
    17:00 +30°C° 0.6 mm 4 mps 751 mmHg 84%
    18:00 +28°C° 0.6 mm 5 mps 751 mmHg 88%
    19:00 +27°C° 0.6 mm 5 mps 752 mmHg 92%
    20:00 +27°C° 1.4 mm 5 mps 752 mmHg 93%
    21:00 +27°C° 1.4 mm 5 mps 753 mmHg 93%
    22:00 +27°C° 1.4 mm 5 mps 753 mmHg 93%
    23:00 +26°C° 0.9 mm 5 mps 753 mmHg 94%

    22 November, Thursday

    Time Temperature Precipitation Wind Pressure Humidity
    00:00 +26°C° 0.9 mm 5 mps 752 mmHg 94%
    01:00 +26°C° 0.9 mm 4 mps 752 mmHg 94%
    02:00 +26°C° 0.4 mm 4 mps 752 mmHg 94%
    03:00 +26°C° 0.4 mm 4 mps 752 mmHg 94%
    04:00 +26°C° 0.4 mm 4 mps 752 mmHg 95%
    05:00 +26°C° 0.7 mm 3 mps 752 mmHg 94%
    06:00 +26°C° 0.7 mm 3 mps 753 mmHg 93%
    07:00 +27°C° 0.7 mm 3 mps 753 mmHg 92%
    08:00 +28°C° 0.4 mm 3 mps 753 mmHg 87%
    09:00 +30°C° 0.4 mm 3 mps 753 mmHg 81%
    10:00 +31°C° 0.4 mm 2 mps 754 mmHg 75%
    11:00 +31°C° 0.1 mm 2 mps 753 mmHg 72%
    12:00 +32°C° 0.1 mm 2 mps 752 mmHg 69%
    13:00 +34°C° 0.1 mm 2 mps 751 mmHg 66%
    14:00 +33°C° 0 mm 3 mps 751 mmHg 70%
    15:00 +33°C° 0 mm 3 mps 750 mmHg 73%
    16:00 +31°C° 0 mm 3 mps 750 mmHg 77%
    17:00 +30°C° 0.1 mm 4 mps 751 mmHg 80%
    18:00 +29°C° 0.1 mm 4 mps 751 mmHg 83%
    19:00 +28°C° 0.1 mm 4 mps 752 mmHg 86%
    20:00 +27°C° 0.1 mm 5 mps 752 mmHg 87%
    21:00 +27°C° 0.1 mm 5 mps 753 mmHg 87%
    22:00 +27°C° 0.1 mm 5 mps 753 mmHg 87%
    23:00 +27°C° 0.5 mm 4 mps 753 mmHg 89%

    23 November, Friday

    Time Temperature Precipitation Wind Pressure Humidity
    00:00 +26°C° 0.5 mm 4 mps 752 mmHg 91%
    01:00 +26°C° 0.5 mm 4 mps 752 mmHg 93%
    02:00 +26°C° 0.5 mm 4 mps 752 mmHg 94%
    03:00 +25°C° 0.5 mm 3 mps 752 mmHg 94%
    04:00 +25°C° 0.5 mm 3 mps 752 mmHg 94%
    05:00 +26°C° 0.1 mm 3 mps 752 mmHg 93%
    06:00 +26°C° 0.1 mm 3 mps 752 mmHg 92%
    07:00 +26°C° 0.1 mm 3 mps 753 mmHg 91%
    08:00 +28°C° 0.1 mm 3 mps 753 mmHg 83%
    09:00 +29°C° 0.1 mm 2 mps 753 mmHg 76%
    10:00 +31°C° 0.1 mm 2 mps 753 mmHg 68%
    11:00 +32°C° 0 mm 2 mps 752 mmHg 66%
    12:00 +32°C° 0 mm 2 mps 751 mmHg 64%
    13:00 +34°C° 0 mm 2 mps 750 mmHg 62%
    14:00 +32°C° 0 mm 2 mps 750 mmHg 66%
    15:00 +32°C° 0 mm 2 mps 750 mmHg 69%
    16:00 +31°C° 0 mm 2 mps 749 mmHg 73%
    17:00 +30°C° 0 mm 3 mps 750 mmHg 78%
    18:00 +28°C° 0 mm 3 mps 751 mmHg 83%
    19:00 +27°C° 0 mm 4 mps 751 mmHg 88%
    20:00 +26°C° 0 mm 4 mps 752 mmHg 89%
    21:00 +26°C° 0 mm 4 mps 752 mmHg 90%
    22:00 +26°C° 0 mm 4 mps 752 mmHg 91%
    23:00 +26°C° 0.3 mm 4 mps 752 mmHg 93%
    Show more